FW4286 Weather Reports


time (UTC)temp
C
wind
direction
speed
KPH
gust
KPH
rain 1hr
cm
rain 24hr
cm
rain mn
cm
humidity
%
barometer
mb
20260906162000 27 21 8.0 20.9 0.00 1.04 0.03 77 1014.7
20260906161459 27 107 11.3 20.9 0.00 1.04 0.03 76 1014.7
20260906160959 27 65 4.8 11.3 0.00 1.04 0.03 78 1014.6
20260906160459 26 42 6.4 9.7 0.00 1.04 0.03 79 1014.6
20260906160004 26 28 4.8 11.3 0.00 1.04 0.03 79 1014.7
20260906155459 26 24 6.4 14.5 0.00 1.04 0.03 78 1014.8
20260906154459 26 29 8.0 17.7 0.00 1.04 0.03 79 1014.7
20260906153459 26 105 8.0 16.1 0.00 1.04 0.03 80 1014.9
20260906152958 26 61 6.4 12.9 0.00 1.04 0.03 81 1014.7
20260906151958 26 30 6.4 14.5 0.00 1.04 0.03 82 1014.8
20260906151458 26 36 8.0 14.5 0.00 1.04 0.03 82 1014.6
20260906150959 26 57 8.0 9.7 0.00 1.04 0.03 83 1014.7
20260906150002 25 34 6.4 9.7 0.00 1.04 0.03 83 1014.7
20260906145458 25 49 1.6 14.5 0.00 1.04 0.03 83 1014.8
20260906144959 25 29 6.4 14.5 0.00 1.04 0.03 84 1014.8
20260906143458 25 23 3.2 8.0 0.00 1.04 0.03 85 1014.8
20260906142959 25 360 4.8 8.0 0.00 1.04 0.03 86 1014.7
20260906141958 25 13 3.2 9.7 0.00 1.04 0.03 86 1014.6
20260906141458 25 323 4.8 12.9 0.00 1.04 0.03 86 1014.5
20260906140002 24 38 4.8 9.7 0.00 1.04 0.03 87 1014.3
20260906135458 24 72 4.8 8.0 0.00 1.04 0.03 87 1014.3
20260906134959 24 40 4.8 8.0 0.00 1.04 0.03 87 1014.3
20260906134459 24 360 4.8 8.0 0.00 1.04 0.03 88 1014.1
20260906133458 23 325 3.2 9.7 0.00 1.04 0.03 90 1014.2
20260906132958 23 18 3.2 9.7 0.00 1.04 0.03 90 1014.1
20260906132459 23 43 6.4 9.7 0.00 1.04 0.03 91 1014.1
20260906131958 23 96 6.4 9.7 0.00 1.04 0.03 92 1014.0
20260906131458 23 58 6.4 9.7 0.00 1.04 0.03 92 1014.2
20260906130958 23 39 4.8 9.7 0.00 1.04 0.03 93 1014.3
20260906130458 23 71 6.4 9.7 0.00 1.04 0.03 92 1014.3
20260906130001 23 52 4.8 9.7 0.00 1.04 0.03 93 1014.2
20260906125458 22 46 3.2 8.0 0.00 1.04 0.03 93 1014.2
20260906124458 22 349 4.8 9.7 0.00 1.04 0.03 94 1014.2
20260906124000 22 80 4.8 9.7 0.00 1.04 0.03 94 1014.2
20260906123500 22 26 4.8 9.7 0.00 1.04 0.03 94 1014.2
20260906122958 22 50 4.8 8.0 0.00 1.04 0.03 94 1014.1
20260906122458 22 29 3.2 8.0 0.00 1.04 0.03 95 1014.1
20260906121959 22 42 3.2 8.0 0.00 1.04 0.03 95 1014.0
20260906120959 22 10 3.2 9.7 0.00 1.04 0.03 95 1014.0
20260906120459 22 57 4.8 9.7 0.00 1.04 0.03 94 1013.8
20260906120003 22 355 6.4 12.9 0.00 1.04 0.03 95 1013.7
20260906115458 22 350 6.4 12.9 0.00 1.04 0.03 95 1013.6
20260906114959 22 5 3.2 8.0 0.00 1.04 0.03 95 1013.5
20260906114458 22 41 3.2 8.0 0.00 1.04 0.03 95 1013.6
20260906114000 22 13 3.2 6.4 0.00 1.04 0.03 95 1013.6
20260906112458 22 22 1.6 6.4 0.00 1.04 0.03 95 1013.5
20260906111959 22 55 3.2 6.4 0.00 1.04 0.03 95 1013.4
20260906111458 22 37 3.2 6.4 0.00 1.04 0.03 95 1013.3
20260906110958 22 78 3.2 6.4 0.00 1.04 0.03 95 1013.3
20260906110459 22 61 3.2 6.4 0.03 1.04 0.03 95 1013.1
20260906110000 22 19 1.6 6.4 0.03 1.04 0.03 95 1013.0
20260906105457 22 54 3.2 12.9 0.03 1.04 0.03 95 1012.9
20260906104958 22 360 3.2 12.9 0.03 1.04 0.03 95 1012.9
20260906104457 22 355 4.8 9.7 0.03 1.04 0.03 95 1012.8
20260906104000 22 51 4.8 9.7 0.03 1.04 0.03 95 1012.8
20260906103457 22 17 4.8 8.0 0.03 1.04 0.03 95 1012.9
20260906102958 22 12 3.2 4.8 0.03 1.04 0.03 95 1012.8
20260906102457 22 46 3.2 4.8 0.03 1.04 0.03 95 1012.7
20260906101957 22 46 1.6 4.8 0.03 1.04 0.03 95 1012.6
20260906101457 22 46 3.2 4.8 0.03 1.04 0.03 95 1012.5
20260906100957 22 46 1.6 1.6 0.03 1.04 0.03 95 1012.4
20260906100457 22 46 0.0 1.6 0.00 1.02 0.00 95 1012.3
20260906095457 22 46 1.6 3.2 0.00 1.02 0.00 95 1012.2
20260906094957 22 46 1.6 3.2 0.00 1.02 0.00 95 1012.2
20260906094458 22 46 1.6 4.8 0.00 1.02 0.00 95 1012.2
20260906093957 22 54 1.6 4.8 0.00 1.02 0.00 95 1012.1
20260906093458 22 54 1.6 4.8 0.00 1.02 0.00 95 1012.2
20260906092957 22 78 1.6 4.8 0.00 1.02 0.00 95 1012.1
20260906092457 22 78 1.6 4.8 0.00 1.02 0.00 95 1012.2
20260906091958 22 94 1.6 6.4 0.00 1.02 0.00 95 1012.2
20260906090957 22 50 3.2 4.8 0.00 1.02 0.00 95 1012.1
20260906090458 22 69 3.2 6.4 0.00 1.02 0.00 95 1012.1
20260906090000 22 46 3.2 9.7 0.00 1.02 0.00 95 1012.1
20260906084958 22 44 3.2 4.8 0.00 1.02 0.00 95 1012.1
20260906084457 22 44 3.2 4.8 0.00 1.02 0.00 95 1012.1
20260906083957 22 64 1.6 4.8 0.00 1.02 0.00 95 1012.0
20260906083457 22 69 3.2 4.8 0.00 1.02 0.00 95 1012.0
20260906082458 22 64 3.2 6.4 0.00 1.02 0.00 95 1011.6
20260906081958 22 53 3.2 6.4 0.00 1.02 0.00 95 1011.7
20260906081457 22 53 3.2 8.0 0.00 1.02 0.00 95 1011.7
20260906080957 22 50 4.8 8.0 0.00 1.02 0.00 95 1011.6
20260906080457 22 63 1.6 4.8 0.00 1.02 0.00 95 1011.4
20260906080001 22 355 0.0 4.8 0.00 1.02 0.00 95 1011.3
20260906075457 22 355 1.6 4.8 0.00 1.02 0.00 95 1011.2
20260906074457 22 22 0.0 0.0 0.00 1.02 0.00 95 1011.2
20260906073957 22 22 0.0 0.0 0.00 1.02 0.00 95 1011.1
20260906072957 22 22 0.0 0.0 0.00 1.02 0.00 95 1011.2
20260906072457 22 360 0.0 0.0 0.00 1.02 0.00 95 1011.2
20260906071458 22 360 0.0 0.0 0.00 1.02 0.00 95 1011.2
20260906070957 22 360 0.0 0.0 0.00 1.02 0.00 95 1011.2
20260906070457 22 360 0.0 0.0 0.00 1.02 0.00 95 1011.1
20260906070001 22 360 0.0 0.0 0.00 1.02 0.00 95 1011.2
20260906065457 22 360 0.0 0.0 0.00 1.02 0.00 95 1011.1
20260906064957 22 360 0.0 0.0 0.00 1.02 0.00 95 1011.1
20260906064457 22 360 0.0 0.0 0.00 1.02 0.00 95 1011.2
20260906063957 22 360 0.0 0.0 0.00 1.02 0.00 95 1011.3
20260906063457 22 360 0.0 0.0 0.00 1.02 0.00 95 1011.4
20260906062958 22 360 0.0 0.0 0.00 1.02 0.00 95 1011.3
20260906062457 22 360 0.0 0.0 0.00 1.02 0.00 95 1011.4
20260906061958 22 360 0.0 0.0 0.00 1.02 0.00 95 1011.4
20260906060958 22 360 0.0 0.0 0.00 1.02 0.00 95 1011.5
20260906060458 22 360 0.0 0.0 0.00 1.02 0.00 95 1011.5
20260906060000 22 360 0.0 0.0 0.00 1.02 0.00 95 1011.8
20260906055458 22 360 0.0 0.0 0.00 1.02 0.00 94 1011.8
20260906054958 22 360 0.0 0.0 0.00 1.02 0.00 94 1011.8
20260906054458 22 360 0.0 0.0 0.00 1.02 0.00 94 1011.8
20260906053957 22 360 0.0 0.0 0.00 1.02 0.00 94 1011.9
20260906053459 22 360 0.0 0.0 0.00 1.02 0.00 94 1012.1
20260906052958 22 360 0.0 0.0 0.00 1.02 0.00 94 1012.2
20260906052458 22 360 0.0 0.0 0.00 1.02 0.00 94 1012.1
20260906051958 22 360 0.0 0.0 0.00 1.02 0.00 94 1012.3
20260906051459 22 360 0.0 0.0 0.00 1.02 0.00 94 1012.4
20260906050958 22 360 0.0 0.0 0.00 1.02 0.00 94 1012.4
20260906045959 22 219 0.0 0.0 0.00 1.02 0.00 94 1012.5
20260906045457 22 219 0.0 0.0 0.00 1.02 0.00 94 1012.5
20260906044456 22 219 0.0 0.0 0.00 1.02 0.00 94 1012.5
20260906043957 22 219 0.0 0.0 0.00 1.02 0.00 94 1012.4
20260906043457 22 219 0.0 0.0 0.00 1.02 0.00 94 1012.4
20260906042501 22 277 0.0 0.0 0.00 1.02 0.00 94 1012.4
20260906042002 22 184 0.0 0.0 0.00 1.02 0.00 94 1012.4
20260906041501 22 184 0.0 0.0 0.00 1.02 0.00 94 1012.5
20260906040501 22 184 0.0 0.0 0.00 1.02 0.00 94 1012.4
20260906040006 22 184 0.0 0.0 0.00 1.02 0.00 94 1012.3
20260906035500 22 184 0.0 0.0 0.00 1.02 1.02 94 1012.4
20260906035001 22 184 0.0 0.0 0.00 1.02 1.02 94 1012.6
20260906034501 22 184 0.0 0.0 0.00 1.02 1.02 94 1012.7
20260906034001 22 184 0.0 0.0 0.00 1.02 1.02 94 1012.5
20260906033501 22 184 0.0 0.0 0.00 1.02 1.02 94 1012.6
20260906033001 22 184 0.0 0.0 0.00 1.02 1.02 94 1012.6
20260906032502 22 184 0.0 0.0 0.00 1.02 1.02 94 1012.7
20260906032001 22 184 0.0 0.0 0.00 1.02 1.02 94 1012.8
20260906031503 23 184 0.0 0.0 0.00 1.02 1.02 94 1012.8
20260906031003 23 184 0.0 0.0 0.00 1.02 1.02 94 1012.7
20260906030005 23 184 0.0 0.0 0.00 1.02 1.02 94 1012.8
20260906025500 23 184 0.0 0.0 0.00 1.02 1.02 94 1012.7
20260906024500 23 184 0.0 0.0 0.00 1.02 1.02 94 1012.8
20260906023959 23 184 0.0 0.0 0.00 1.02 1.02 94 1012.8
20260906023459 23 184 0.0 0.0 0.00 1.02 1.02 94 1012.8
20260906023000 23 184 0.0 0.0 0.00 1.02 1.02 94 1012.9
20260906021500 23 184 0.0 0.0 0.00 1.02 1.02 94 1012.9
20260906021000 23 184 0.0 0.0 0.00 1.02 1.02 94 1012.7
20260906020500 23 184 0.0 0.0 0.00 1.02 1.02 94 1012.6
20260906020003 23 184 0.0 0.0 0.00 1.02 1.02 94 1012.7
20260906014959 23 184 0.0 0.0 0.00 1.02 1.02 94 1012.6
20260906014501 23 184 0.0 0.0 0.00 1.02 1.02 94 1012.6
20260906014001 23 184 0.0 0.0 0.00 1.02 1.02 93 1012.6
20260906013000 23 184 0.0 0.0 0.00 1.02 1.02 93 1012.3
20260906012459 23 184 0.0 0.0 0.00 1.02 1.02 93 1012.2
20260906012001 23 184 0.0 0.0 0.00 1.02 1.02 93 1012.1
20260906011500 23 184 0.0 0.0 0.00 1.02 1.02 93 1011.9
20260906011000 23 184 0.0 0.0 0.00 1.02 1.02 93 1012.0
20260906010501 23 184 0.0 0.0 0.00 1.02 1.02 93 1012.2
20260906005000 23 184 0.0 3.2 0.00 1.02 1.02 93 1012.0
20260906004459 23 184 0.0 1.6 0.00 1.02 1.02 93 1012.1
20260906003959 23 184 0.0 1.6 0.00 1.02 1.02 93 1012.1
20260906003459 23 184 0.0 3.2 0.00 1.02 1.02 93 1012.0
20260906003001 23 184 1.6 3.2 0.00 1.02 1.02 93 1012.0
20260906002459 23 184 0.0 3.2 0.00 1.02 1.02 93 1011.9
20260906002001 23 184 0.0 3.2 0.00 1.02 1.02 93 1011.9
20260906000959 23 184 0.0 1.6 0.00 1.02 1.02 93 1011.5
20260906000500 23 184 0.0 1.6 0.00 1.02 1.02 93 1011.5
20260906000005 23 184 0.0 3.2 0.00 1.02 1.02 93 1011.4
20260905235501 23 184 1.6 3.2 0.00 1.02 1.02 93 1011.3
20260905235000 23 355 1.6 4.8 0.00 1.02 1.02 93 1011.2
20260905234459 23 355 3.2 4.8 0.00 1.02 1.02 93 1011.2
20260905233459 23 40 1.6 3.2 0.00 1.02 1.02 93 1010.9
20260905233000 23 40 1.6 6.4 0.00 1.02 1.02 93 1010.7
20260905232000 23 305 3.2 6.4 0.00 1.02 1.02 93 1010.9
20260905231500 23 305 3.2 4.8 0.00 1.02 1.02 93 1010.9
20260905230959 23 305 0.0 3.2 0.00 1.02 1.02 93 1010.6
20260905230459 23 305 0.0 4.8 0.00 1.02 1.02 93 1010.6
20260905225000 23 130 1.6 9.7 0.00 1.02 1.02 93 1010.2
20260905223000 23 121 3.2 4.8 0.03 1.02 1.02 92 1010.3
20260905221501 23 346 1.6 3.2 0.05 1.02 1.02 91 1010.5
20260905221000 23 346 0.0 1.6 0.05 1.02 1.02 91 1010.6
20260905220501 23 346 0.0 4.8 0.05 1.02 1.02 91 1010.5
20260905220003 23 346 1.6 4.8 0.05 1.02 1.02 91 1010.6
20260905215459 23 194 1.6 3.2 0.05 1.02 1.02 91 1010.7
20260905215001 23 194 1.6 8.0 0.05 1.02 1.02 91 1010.8
20260905214500 24 194 3.2 8.0 0.03 0.99 0.99 91 1010.9
20260905214000 24 224 4.8 8.0 0.03 0.99 0.99 91 1010.7
20260905213500 23 278 0.0 3.2 0.05 0.99 0.99 91 1010.3
20260905212459 23 278 1.6 3.2 0.89 0.97 0.97 90 1010.5
20260905211959 23 278 1.6 6.4 0.97 0.97 0.97 90 1010.6
20260905211500 23 278 4.8 8.0 0.97 0.97 0.97 89 1010.7
20260905210959 24 312 6.4 8.0 0.97 0.97 0.97 89 1010.7
20260905210459 24 157 1.6 9.7 0.97 0.97 0.97 89 1010.4
20260905210002 24 160 6.4 12.9 0.97 0.97 0.97 89 1010.5
20260905205459 24 157 4.8 17.7 0.97 0.97 0.97 88 1010.4
20260905204459 24 71 4.8 11.3 0.97 0.97 0.97 87 1010.3
20260905203459 25 78 8.0 25.7 0.94 0.94 0.94 82 1010.7
20260905203000 26 41 8.0 32.2 0.48 0.48 0.48 74 1011.4
20260905202741 27 259 17.7 32.2 0.30 0.30 0.30 72 1011.5
20260905201500 32 44 17.7 35.4 0.00 0.00 0.00 58 1010.0
20260905200003 35 26 3.2 6.4 0.00 0.00 0.00 54 1009.8
20260905195459 35 30 1.6 4.8 0.00 0.00 0.00 54 1009.5
20260905194459 35 33 3.2 6.4 0.00 0.00 0.00 51 1009.9
20260905194000 35 42 4.8 8.0 0.00 0.00 0.00 52 1009.9
20260905193459 35 344 4.8 9.7 0.00 0.00 0.00 52 1009.7
20260905192959 35 63 4.8 14.5 0.00 0.00 0.00 53 1009.7
20260905192459 35 355 6.4 16.1 0.00 0.00 0.00 52 1009.7
20260905192001 35 23 6.4 16.1 0.00 0.00 0.00 52 1009.9
20260905191500 36 13 6.4 14.5 0.00 0.00 0.00 52 1009.9
20260905191000 36 251 3.2 14.5 0.00 0.00 0.00 49 1009.9
20260905190002 36 319 3.2 12.9 0.00 0.00 0.00 50 1009.9
20260905185458 36 355 6.4 9.7 0.00 0.00 0.00 51 1009.9
20260905184958 36 255 3.2 8.0 0.00 0.00 0.00 50 1009.9
20260905184458 36 9 3.2 8.0 0.00 0.00 0.00 49 1010.0
20260905183958 36 182 3.2 17.7 0.00 0.00 0.00 51 1010.1
20260905183458 36 284 11.3 17.7 0.00 0.00 0.00 53 1010.2
20260905182958 36 185 6.4 17.7 0.00 0.00 0.00 51 1010.3
20260905182500 36 298 6.4 12.9 0.00 0.00 0.00 51 1010.4
20260905181958 36 355 4.8 11.3 0.00 0.00 0.00 51 1010.5
20260905181459 35 253 4.8 16.1 0.00 0.00 0.00 52 1010.6
20260905180500 35 335 4.8 12.9 0.00 0.00 0.00 54 1010.9
20260905180003 35 317 8.0 17.7 0.00 0.00 0.00 53 1011.1
20260905175458 35 175 1.6 17.7 0.00 0.00 0.00 53 1011.1
20260905174458 35 298 6.4 14.5 0.00 0.00 0.00 53 1011.3
20260905173958 35 5 4.8 20.9 0.00 0.00 0.00 55 1011.4
20260905173458 35 297 12.9 20.9 0.00 0.00 0.00 55 1011.6
20260905173000 35 267 4.8 14.5 0.00 0.00 0.00 56 1011.7
20260905172458 35 252 8.0 14.5 0.00 0.00 0.00 55 1011.8
20260905171958 35 337 6.4 20.9 0.00 0.00 0.00 56 1011.8
20260905171458 35 245 6.4 14.5 0.00 0.00 0.00 55 1011.8
20260905170458 34 297 6.4 16.1 0.00 0.00 0.00 56 1012.0
20260905170002 34 327 6.4 16.1 0.00 0.00 0.00 55 1012.1
20260905165458 34 266 6.4 14.5 0.00 0.00 0.00 56 1012.0
20260905164959 34 298 6.4 12.9 0.00 0.00 0.00 57 1012.0
20260905164459 33 10 6.4 14.5 0.00 0.00 0.00 58 1012.1
20260905163958 33 269 6.4 14.5 0.00 0.00 0.00 58 1012.2
20260905163458 33 321 6.4 19.3 0.00 0.00 0.00 57 1012.3
20260905162959 33 277 8.0 19.3 0.00 0.00 0.00 58 1012.3